SXS8UZ LTAI-UZTT

Flight info

Callsign SXS8UZ
Flight time 3h 52m
Altitude 36000
Route TEWHE UR55 MUT UA285 ERGEP/N0450F380 UA285 SELVI/N0451F370 UA285 SIV UA4 ORHAN/N0453F390 UA4 ERZ UB374 INDUR N161 EDATA M11 LUSAL N199 RASAM L88 METKA B476 DARVA/K0848F390 T898 OGOLI N193 DIBAD DIBAD2T
Aircraft B38M/M-SDE1FGHILORVWXY/HB1

Departure

Time 2026-04-22 15:27
Airport Antalya International Airport (LTAI)

Arrival

Time 2026-04-22 19:19
Airport Tashkent International Airport (UZTT)
Time Latitude Longitude Altitude Speed Heading
2026-04-22 14:50 36.89740 30.80216 185 ft 0 kts 318°
2026-04-22 15:11 36.89733 30.80223 185 ft 2 kts 319°
2026-04-22 15:12 36.89722 30.80236 185 ft 2 kts 318°
2026-04-22 15:12 36.89711 30.80249 185 ft 2 kts 318°
2026-04-22 15:12 36.89698 30.80262 185 ft 2 kts 318°
2026-04-22 15:12 36.89687 30.80275 185 ft 2 kts 317°
2026-04-22 15:13 36.89681 30.80290 185 ft 2 kts 262°
2026-04-22 15:13 36.89688 30.80307 185 ft 2 kts 218°
2026-04-22 15:13 36.89702 30.80314 185 ft 2 kts 180°
2026-04-22 15:13 36.89713 30.80314 185 ft 0 kts 185°
2026-04-22 15:14 36.89714 30.80314 185 ft 0 kts 186°
2026-04-22 15:18 36.89712 30.80314 185 ft 0 kts 186°
2026-04-22 15:18 36.89695 30.80312 185 ft 5 kts 186°
2026-04-22 15:19 36.89641 30.80305 185 ft 9 kts 186°
2026-04-22 15:19 36.89590 30.80365 185 ft 13 kts 98°
2026-04-22 15:19 36.89577 30.80506 185 ft 15 kts 96°
2026-04-22 15:19 36.89566 30.80638 185 ft 12 kts 90°
2026-04-22 15:20 36.89617 30.80697 185 ft 9 kts
2026-04-22 15:20 36.89690 30.80706 185 ft 10 kts
2026-04-22 15:20 36.89773 30.80717 185 ft 12 kts
2026-04-22 15:20 36.89869 30.80730 185 ft 13 kts
2026-04-22 15:21 36.89982 30.80746 185 ft 15 kts
2026-04-22 15:21 36.90101 30.80762 185 ft 16 kts
2026-04-22 15:21 36.90218 30.80778 185 ft 17 kts
2026-04-22 15:21 36.90342 30.80795 185 ft 19 kts
2026-04-22 15:22 36.90483 30.80815 185 ft 21 kts
2026-04-22 15:22 36.90630 30.80835 185 ft 21 kts
2026-04-22 15:22 36.90787 30.80858 185 ft 23 kts
2026-04-22 15:22 36.90947 30.80877 185 ft 20 kts
2026-04-22 15:23 36.91082 30.80898 185 ft 13 kts
2026-04-22 15:23 36.91133 30.80936 185 ft 5 kts 63°
2026-04-22 15:23 36.91137 30.80966 185 ft 0 kts 86°
2026-04-22 15:23 36.91137 30.80968 185 ft 0 kts 87°
2026-04-22 15:24 36.91138 30.80977 185 ft 1 kts 89°
2026-04-22 15:24 36.91137 30.80993 185 ft 2 kts 92°
2026-04-22 15:24 36.91136 30.81015 185 ft 2 kts 97°
2026-04-22 15:24 36.91133 30.81041 185 ft 3 kts 99°
2026-04-22 15:25 36.91128 30.81077 185 ft 4 kts 99°
2026-04-22 15:25 36.91114 30.81117 185 ft 5 kts 131°
2026-04-22 15:25 36.91081 30.81135 185 ft 4 kts 186°
2026-04-22 15:25 36.91074 30.81135 185 ft 0 kts 186°
2026-04-22 15:26 36.91071 30.81134 185 ft 3 kts 186°
2026-04-22 15:26 36.90967 30.81120 185 ft 41 kts 186°
2026-04-22 15:26 36.90398 30.81045 185 ft 115 kts 185°
2026-04-22 15:27 36.89341 30.80892 221 ft 171 kts 186°
2026-04-22 15:27 36.88118 30.80700 923 ft 174 kts 185°
2026-04-22 15:27 36.86956 30.80533 1761 ft 175 kts 181°
2026-04-22 15:27 36.85664 30.80825 2152 ft 188 kts 164°
2026-04-22 15:28 36.84341 30.81320 2391 ft 206 kts 163°
2026-04-22 15:28 36.82816 30.81788 2827 ft 214 kts 169°
2026-04-22 15:28 36.81308 30.82105 3203 ft 223 kts 171°
2026-04-22 15:28 36.79708 30.82487 3692 ft 225 kts 167°
2026-04-22 15:29 36.78102 30.83203 4007 ft 238 kts 155°
2026-04-22 15:29 36.76423 30.84302 4451 ft 244 kts 148°
2026-04-22 15:29 36.75077 30.85698 4900 ft 246 kts 132°
2026-04-22 15:30 36.73579 30.89754 5824 ft 250 kts 97°
2026-04-22 15:30 36.73400 30.92002 6281 ft 251 kts 95°
2026-04-22 15:30 36.73232 30.94280 6720 ft 253 kts 95°
2026-04-22 15:30 36.73059 30.96522 7157 ft 259 kts 95°
2026-04-22 15:31 36.72882 30.98756 7802 ft 257 kts 96°
2026-04-22 15:31 36.72690 31.01127 8397 ft 260 kts 96°
2026-04-22 15:31 36.72507 31.03453 8766 ft 274 kts 93°
2026-04-22 15:31 36.72689 31.05991 9232 ft 283 kts 78°
2026-04-22 15:32 36.73149 31.08555 9848 ft 287 kts 76°
2026-04-22 15:32 36.73631 31.11035 10290 ft 297 kts 76°
2026-04-22 15:32 36.74183 31.13849 10368 ft 321 kts 76°
2026-04-22 15:32 36.74748 31.16727 10642 ft 336 kts 76°
2026-04-22 15:33 36.75303 31.19565 11195 ft 340 kts 76°
2026-04-22 15:33 36.75860 31.22412 11767 ft 343 kts 76°
2026-04-22 15:33 36.76424 31.25299 12346 ft 345 kts 76°
2026-04-22 15:33 36.76991 31.28204 12912 ft 348 kts 76°
2026-04-22 15:34 36.77564 31.31149 13471 ft 351 kts 76°
2026-04-22 15:34 36.78141 31.34116 14026 ft 354 kts 76°
2026-04-22 15:34 36.78725 31.37120 14568 ft 357 kts 76°
2026-04-22 15:34 36.79324 31.40212 15120 ft 360 kts 76°
2026-04-22 15:35 36.79918 31.43281 15644 ft 363 kts 76°
2026-04-22 15:35 36.80529 31.46437 16172 ft 365 kts 76°
2026-04-22 15:35 36.81146 31.49635 16683 ft 368 kts 76°
2026-04-22 15:35 36.81809 31.53074 17220 ft 371 kts 76°
2026-04-22 15:36 36.82460 31.56459 17727 ft 374 kts 76°
2026-04-22 15:36 36.83089 31.59734 18202 ft 377 kts 76°
2026-04-22 15:36 36.83762 31.63240 18696 ft 379 kts 76°
2026-04-22 15:36 36.84441 31.66787 19175 ft 382 kts 77°
2026-04-22 15:37 36.85115 31.70315 19640 ft 385 kts 77°
2026-04-22 15:37 36.85801 31.73913 20095 ft 387 kts 77°
2026-04-22 15:37 36.86452 31.77329 20517 ft 390 kts 76°
2026-04-22 15:37 36.87314 31.80602 20891 ft 393 kts 66°
2026-04-22 15:38 36.88537 31.83866 21332 ft 394 kts 64°
2026-04-22 15:38 36.90283 31.88286 21850 ft 398 kts 64°
2026-04-22 15:38 36.91657 31.91681 22124 ft 404 kts 62°
2026-04-22 15:39 36.93073 31.94978 22219 ft 415 kts 61°
2026-04-22 15:39 36.94586 31.98455 22559 ft 419 kts 61°
2026-04-22 15:39 36.96030 32.01788 22866 ft 422 kts 62°
2026-04-22 15:39 36.97503 32.05217 23222 ft 425 kts 62°
2026-04-22 15:40 36.98902 32.08511 23546 ft 427 kts 62°
2026-04-22 15:40 37.00357 32.11996 23885 ft 430 kts 63°
2026-04-22 15:40 37.01718 32.15321 24195 ft 432 kts 64°
2026-04-22 15:40 37.03187 32.18995 24549 ft 434 kts 64°
2026-04-22 15:41 37.04628 32.22678 24861 ft 436 kts 65°
2026-04-22 15:41 37.06065 32.26373 25201 ft 438 kts 65°
2026-04-22 15:41 37.07487 32.30038 25520 ft 440 kts 65°
2026-04-22 15:41 37.08944 32.33793 25840 ft 442 kts 65°
2026-04-22 15:42 37.10319 32.37344 26143 ft 443 kts 65°
2026-04-22 15:42 37.11733 32.41000 26428 ft 445 kts 66°
2026-04-22 15:42 37.13120 32.44588 26699 ft 447 kts 66°
2026-04-22 15:42 37.14597 32.48417 26964 ft 449 kts 66°
2026-04-22 15:43 37.16042 32.52164 27231 ft 451 kts 65°
2026-04-22 15:43 37.17471 32.55878 27498 ft 453 kts 65°
2026-04-22 15:43 37.18943 32.59705 27755 ft 455 kts 65°
2026-04-22 15:43 37.20324 32.63300 27983 ft 456 kts 65°
2026-04-22 15:44 37.21796 32.67139 28224 ft 458 kts 66°
2026-04-22 15:44 37.23180 32.70748 28449 ft 460 kts 66°
2026-04-22 15:44 37.24573 32.74385 28667 ft 461 kts 66°
2026-04-22 15:44 37.26082 32.78329 28899 ft 463 kts 66°
2026-04-22 15:45 37.27506 32.82055 29117 ft 465 kts 66°
2026-04-22 15:45 37.28901 32.85711 29310 ft 466 kts 66°
2026-04-22 15:45 37.30412 32.89675 29526 ft 468 kts 66°
2026-04-22 15:45 37.31818 32.93371 29694 ft 470 kts 66°
2026-04-22 15:46 37.33315 32.97308 29864 ft 473 kts 65°
2026-04-22 15:46 37.34813 33.01254 30069 ft 474 kts 65°
2026-04-22 15:46 37.36257 33.05061 30251 ft 476 kts 65°
2026-04-22 15:46 37.37682 33.08823 30429 ft 477 kts 65°
2026-04-22 15:47 37.39126 33.12643 30615 ft 478 kts 65°
2026-04-22 15:47 37.40626 33.16615 30807 ft 480 kts 64°
2026-04-22 15:47 37.42154 33.20665 31006 ft 480 kts 64°
2026-04-22 15:47 37.43671 33.24690 31235 ft 480 kts 64°
2026-04-22 15:48 37.45179 33.28699 31497 ft 480 kts 64°
2026-04-22 15:48 37.46606 33.32499 31701 ft 480 kts 64°
2026-04-22 15:48 37.48022 33.36270 31916 ft 480 kts 64°
2026-04-22 15:48 37.49553 33.40354 32162 ft 479 kts 64°
2026-04-22 15:49 37.51095 33.44474 32401 ft 479 kts 64°
2026-04-22 15:49 37.52665 33.48675 32638 ft 478 kts 64°
2026-04-22 15:49 37.54196 33.52778 32866 ft 478 kts 64°
2026-04-22 15:49 37.55752 33.56952 33090 ft 477 kts 64°
2026-04-22 15:50 37.57305 33.61125 33304 ft 477 kts 64°
2026-04-22 15:50 37.58843 33.65261 33535 ft 476 kts 65°
2026-04-22 15:50 37.60391 33.69428 33720 ft 476 kts 65°
2026-04-22 15:50 37.61933 33.73583 33936 ft 475 kts 64°
2026-04-22 15:51 37.63483 33.77763 34149 ft 475 kts 65°
2026-04-22 15:51 37.64959 33.81753 34313 ft 475 kts 64°
2026-04-22 15:51 37.66366 33.85560 34496 ft 474 kts 64°
2026-04-22 15:51 37.67750 33.89310 34677 ft 474 kts 65°
2026-04-22 15:52 37.69158 33.93131 34845 ft 474 kts 64°
2026-04-22 15:52 37.70603 33.97057 35025 ft 473 kts 64°
2026-04-22 15:52 37.72050 34.00992 35203 ft 473 kts 64°
2026-04-22 15:52 37.73520 34.04996 35364 ft 473 kts 65°
2026-04-22 15:53 37.74963 34.08932 35541 ft 472 kts 64°
2026-04-22 15:53 37.76438 34.12961 35725 ft 471 kts 65°
2026-04-22 15:53 37.77873 34.16884 35903 ft 471 kts 65°
2026-04-22 15:53 37.79266 34.20699 36069 ft 470 kts 65°
2026-04-22 15:54 37.80647 34.24485 36207 ft 471 kts 64°
2026-04-22 15:54 37.82086 34.28437 36362 ft 471 kts 64°
2026-04-22 15:54 37.83449 34.32185 36513 ft 471 kts 64°
2026-04-22 15:54 37.84836 34.36003 36655 ft 471 kts 65°
2026-04-22 15:55 37.86240 34.39845 36781 ft 471 kts 63°
2026-04-22 15:55 37.87825 34.43597 36909 ft 471 kts 57°
2026-04-22 15:55 37.89656 34.47034 37036 ft 469 kts 51°
2026-04-22 15:55 37.91804 34.50365 37191 ft 468 kts 47°
2026-04-22 15:56 37.94083 34.53562 37321 ft 468 kts 45°
2026-04-22 15:56 37.96465 34.56745 37445 ft 468 kts 44°
2026-04-22 15:56 37.98790 34.59779 37561 ft 467 kts 44°
2026-04-22 15:56 38.01144 34.62791 37679 ft 468 kts 43°
2026-04-22 15:57 38.03486 34.65722 37788 ft 468 kts 43°
2026-04-22 15:57 38.05919 34.68726 37912 ft 467 kts 43°
2026-04-22 15:57 38.10666 34.74514 37912 ft 469 kts 42°
2026-04-22 15:58 38.15492 34.80356 37912 ft 468 kts 42°
2026-04-22 15:58 38.20357 34.86222 37911 ft 469 kts 42°
2026-04-22 15:59 38.25346 34.92229 37912 ft 470 kts 42°
2026-04-22 15:59 38.30094 34.97955 37912 ft 472 kts 42°
2026-04-22 16:00 38.34876 35.03727 37912 ft 475 kts 42°
2026-04-22 16:00 38.39797 35.09348 37912 ft 477 kts 38°
2026-04-22 16:01 38.44855 35.14784 37910 ft 476 kts 38°
2026-04-22 16:01 38.49896 35.20194 37911 ft 474 kts 38°
2026-04-22 16:02 38.54736 35.25921 37912 ft 475 kts 43°
2026-04-22 16:02 38.59409 35.31839 37912 ft 476 kts 43°
2026-04-22 16:03 38.64092 35.37791 37911 ft 476 kts 43°
2026-04-22 16:03 38.68777 35.43762 37911 ft 476 kts 43°
2026-04-22 16:04 38.73479 35.49768 37911 ft 477 kts 43°
2026-04-22 16:04 38.78411 35.56083 37912 ft 478 kts 43°
2026-04-22 16:05 38.83428 35.62513 37911 ft 476 kts 43°
2026-04-22 16:05 38.88163 35.68599 37912 ft 477 kts 44°
2026-04-22 16:06 38.92810 35.74579 37912 ft 477 kts 43°
2026-04-22 16:06 38.97531 35.80586 37912 ft 476 kts 41°
2026-04-22 16:07 39.02117 35.86290 37910 ft 474 kts 41°
2026-04-22 16:07 39.07117 35.92508 37912 ft 472 kts 41°
2026-04-22 16:08 39.11977 35.98562 37912 ft 474 kts 41°
2026-04-22 16:08 39.16711 36.04494 37912 ft 475 kts 42°
2026-04-22 16:09 39.21259 36.10611 37912 ft 475 kts 43°
2026-04-22 16:09 39.25829 36.16807 37921 ft 474 kts 43°
2026-04-22 16:10 39.30368 36.22945 37940 ft 474 kts 43°
2026-04-22 16:10 39.34924 36.29105 37959 ft 475 kts 43°
2026-04-22 16:11 39.39463 36.35246 37966 ft 476 kts 43°
2026-04-22 16:11 39.44019 36.41420 37966 ft 476 kts 43°
2026-04-22 16:12 39.48573 36.47597 37965 ft 475 kts 43°
2026-04-22 16:12 39.53102 36.53775 37966 ft 474 kts 43°
2026-04-22 16:13 39.57692 36.60081 37966 ft 474 kts 43°
2026-04-22 16:13 39.62192 36.66254 37965 ft 475 kts 44°
2026-04-22 16:14 39.66734 36.72480 37967 ft 475 kts 44°
2026-04-22 16:14 39.71267 36.78703 37966 ft 476 kts 44°
2026-04-22 16:15 39.75345 36.85450 37965 ft 480 kts 59°
2026-04-22 16:15 39.77890 36.93509 37966 ft 481 kts 73°
2026-04-22 16:16 39.79366 37.02058 37966 ft 484 kts 80°
2026-04-22 16:16 39.80432 37.10946 37967 ft 489 kts 84°
2026-04-22 16:17 39.81332 37.20035 37966 ft 493 kts 86°
2026-04-22 16:17 39.82124 37.28944 37963 ft 491 kts 86°
2026-04-22 16:18 39.82878 37.37843 37965 ft 487 kts 86°
2026-04-22 16:18 39.83588 37.46626 37968 ft 488 kts 87°
2026-04-22 16:19 39.84262 37.55600 37966 ft 491 kts 87°
2026-04-22 16:19 39.84931 37.64460 37964 ft 492 kts 87°
2026-04-22 16:20 39.85612 37.73399 37967 ft 490 kts 87°
2026-04-22 16:20 39.86283 37.82272 37964 ft 489 kts 88°
2026-04-22 16:21 39.86958 37.91312 37962 ft 490 kts 87°
2026-04-22 16:21 39.87614 38.00115 37955 ft 490 kts 88°
2026-04-22 16:22 39.88559 38.13406 37943 ft 493 kts 88°
2026-04-22 16:23 39.89503 38.26635 37937 ft 486 kts 88°
2026-04-22 16:23 39.90126 38.35376 37939 ft 488 kts 88°
2026-04-22 16:24 39.91093 38.49088 37939 ft 490 kts 87°
2026-04-22 16:25 39.91762 38.58658 37939 ft 490 kts 88°
2026-04-22 16:25 39.92691 38.72220 37942 ft 490 kts 88°
2026-04-22 16:26 39.93317 38.81348 37947 ft 490 kts 88°
2026-04-22 16:26 39.93814 38.90601 37950 ft 489 kts 92°
2026-04-22 16:27 39.93956 39.00015 37956 ft 489 kts 92°
2026-04-22 16:27 39.94071 39.08904 37962 ft 487 kts 92°
2026-04-22 16:28 39.94209 39.18171 37966 ft 488 kts 92°
2026-04-22 16:28 39.94349 39.27231 37966 ft 490 kts 92°
2026-04-22 16:29 39.94499 39.36635 37965 ft 488 kts 92°
2026-04-22 16:29 39.94636 39.45813 37964 ft 488 kts 92°
2026-04-22 16:30 39.94772 39.55210 37965 ft 489 kts 92°
2026-04-22 16:30 39.94884 39.64445 37965 ft 490 kts 92°
2026-04-22 16:31 39.94976 39.73548 37964 ft 489 kts 93°
2026-04-22 16:31 39.95082 39.82817 37967 ft 489 kts 92°
2026-04-22 16:32 39.95181 39.91766 37965 ft 488 kts 92°
2026-04-22 16:32 39.95259 40.00864 37966 ft 489 kts 93°
2026-04-22 16:33 39.95333 40.09945 37967 ft 488 kts 93°
2026-04-22 16:33 39.95402 40.18901 37965 ft 488 kts 92°
2026-04-22 16:34 39.95471 40.27818 37965 ft 488 kts 93°
2026-04-22 16:34 39.95531 40.36876 37970 ft 487 kts 93°
2026-04-22 16:35 39.95591 40.45823 37991 ft 489 kts 93°
2026-04-22 16:35 39.95641 40.55213 38013 ft 489 kts 93°
2026-04-22 16:36 39.95676 40.64083 38020 ft 488 kts 93°
2026-04-22 16:36 39.95695 40.72919 38021 ft 488 kts 94°
2026-04-22 16:37 39.95693 40.82129 38022 ft 486 kts 94°
2026-04-22 16:37 39.95708 40.91356 38021 ft 488 kts 93°
2026-04-22 16:38 39.95721 41.00649 38022 ft 492 kts 93°
2026-04-22 16:38 39.95736 41.09930 38018 ft 492 kts 93°
2026-04-22 16:39 39.95768 41.18939 38019 ft 489 kts 90°
2026-04-22 16:39 39.96289 41.27909 38021 ft 492 kts 87°
2026-04-22 16:40 39.96919 41.36968 38022 ft 493 kts 86°
2026-04-22 16:41 39.97915 41.50677 38018 ft 495 kts 86°
2026-04-22 16:41 39.98573 41.59752 38020 ft 493 kts 87°
2026-04-22 16:42 39.99238 41.68926 38018 ft 490 kts 87°
2026-04-22 16:42 39.99890 41.77996 38021 ft 492 kts 86°
2026-04-22 16:43 40.00525 41.86830 38020 ft 495 kts 87°
2026-04-22 16:43 40.01179 41.95784 38020 ft 495 kts 87°
2026-04-22 16:44 40.01820 42.04715 38019 ft 494 kts 86°
2026-04-22 16:44 40.02457 42.13568 38019 ft 490 kts 87°
2026-04-22 16:45 40.03090 42.22554 38019 ft 490 kts 86°
2026-04-22 16:45 40.03749 42.32150 38020 ft 494 kts 87°
2026-04-22 16:46 40.04410 42.41834 38016 ft 495 kts 87°
2026-04-22 16:46 40.05019 42.51530 38010 ft 493 kts 88°
2026-04-22 16:47 40.05583 42.61211 38004 ft 492 kts 88°
2026-04-22 16:47 40.06139 42.70392 37995 ft 490 kts 88°
2026-04-22 16:48 40.06737 42.80021 37995 ft 491 kts 88°
2026-04-22 16:48 40.07326 42.89736 37993 ft 495 kts 88°
2026-04-22 16:49 40.07879 42.99148 37992 ft 493 kts 89°
2026-04-22 16:49 40.08398 43.08400 37993 ft 494 kts 87°
2026-04-22 16:50 40.08931 43.17812 37994 ft 500 kts 87°
2026-04-22 16:50 40.09481 43.27496 37994 ft 503 kts 87°
2026-04-22 16:51 40.10018 43.37067 37993 ft 505 kts 86°
2026-04-22 16:51 40.10512 43.46320 37990 ft 504 kts 86°
2026-04-22 16:52 40.11011 43.55806 37987 ft 501 kts 87°
2026-04-22 16:52 40.11666 43.65596 37981 ft 505 kts 82°
2026-04-22 16:53 40.12934 43.75317 37972 ft 504 kts 81°
2026-04-22 16:53 40.14247 43.84777 37957 ft 502 kts 80°
2026-04-22 16:54 40.15585 43.94302 37940 ft 502 kts 80°
2026-04-22 16:54 40.16885 44.03561 37939 ft 501 kts 80°
2026-04-22 16:55 40.18229 44.13050 37938 ft 503 kts 79°
2026-04-22 16:55 40.19527 44.22284 37940 ft 502 kts 80°
2026-04-22 16:56 40.20829 44.31631 37939 ft 503 kts 80°
2026-04-22 16:56 40.22172 44.41313 37939 ft 504 kts 80°
2026-04-22 16:57 40.23500 44.50944 37940 ft 504 kts 80°
2026-04-22 16:57 40.24785 44.60354 37939 ft 503 kts 80°
2026-04-22 16:58 40.25911 44.68455 37941 ft 503 kts 81°
2026-04-22 16:58 40.27399 44.79085 37940 ft 506 kts 80°
2026-04-22 16:59 40.28761 44.88704 37939 ft 506 kts 80°
2026-04-22 16:59 40.30105 44.98187 37936 ft 502 kts 80°
2026-04-22 17:00 40.31456 45.07796 37939 ft 500 kts 79°
2026-04-22 17:00 40.33416 45.21824 37939 ft 501 kts 79°
2026-04-22 17:01 40.34670 45.30864 37938 ft 500 kts 78°
2026-04-22 17:01 40.35991 45.40453 37939 ft 500 kts 78°
2026-04-22 17:02 40.37257 45.49710 37939 ft 501 kts 79°
2026-04-22 17:02 40.38562 45.59302 37938 ft 501 kts 78°
2026-04-22 17:03 40.39866 45.68837 37938 ft 500 kts 79°
2026-04-22 17:03 40.41242 45.78473 37938 ft 500 kts 79°
2026-04-22 17:04 40.42595 45.87857 37938 ft 499 kts 78°
2026-04-22 17:04 40.43942 45.97181 37939 ft 499 kts 78°
2026-04-22 17:05 40.45321 46.06740 37938 ft 499 kts 78°
2026-04-22 17:05 40.46695 46.16321 37939 ft 500 kts 78°
2026-04-22 17:06 40.48009 46.25513 37938 ft 500 kts 78°
2026-04-22 17:06 40.49330 46.34812 37935 ft 500 kts 78°
2026-04-22 17:07 40.50642 46.44101 37895 ft 500 kts 78°
2026-04-22 17:07 40.51947 46.53394 37853 ft 501 kts 78°
2026-04-22 17:08 40.53290 46.63017 37829 ft 500 kts 78°
2026-04-22 17:08 40.54625 46.72617 37831 ft 500 kts 79°
2026-04-22 17:09 40.55888 46.81746 37831 ft 500 kts 79°
2026-04-22 17:09 40.57185 46.91197 37831 ft 503 kts 78°
2026-04-22 17:10 40.58429 47.00325 37831 ft 502 kts 78°
2026-04-22 17:10 40.59648 47.09338 37830 ft 499 kts 78°
2026-04-22 17:11 40.60110 47.18681 37833 ft 500 kts 88°
2026-04-22 17:11 40.60143 47.27919 37830 ft 502 kts 90°
2026-04-22 17:12 40.60019 47.37204 37830 ft 501 kts 90°
2026-04-22 17:12 40.59821 47.46439 37830 ft 502 kts 91°
2026-04-22 17:13 40.59585 47.55677 37832 ft 501 kts 91°
2026-04-22 17:13 40.59332 47.64904 37831 ft 502 kts 91°
2026-04-22 17:14 40.59078 47.74100 37831 ft 501 kts 92°
2026-04-22 17:14 40.58791 47.83365 37831 ft 502 kts 92°
2026-04-22 17:15 40.58505 47.92558 37831 ft 503 kts 90°
2026-04-22 17:15 40.58622 48.02101 37832 ft 504 kts 87°
2026-04-22 17:16 40.58861 48.11877 37830 ft 502 kts 87°
2026-04-22 17:16 40.59108 48.21449 37830 ft 500 kts 87°
2026-04-22 17:17 40.59350 48.31180 37831 ft 502 kts 87°
2026-04-22 17:17 40.59583 48.40626 37829 ft 503 kts 87°
2026-04-22 17:18 40.59816 48.49900 37830 ft 503 kts 87°
2026-04-22 17:18 40.60045 48.59467 37829 ft 502 kts 86°
2026-04-22 17:19 40.60500 48.78473 37840 ft 500 kts 87°
2026-04-22 17:20 40.60934 48.97809 37883 ft 502 kts 88°
2026-04-22 17:21 40.61220 49.11937 37884 ft 499 kts 88°
2026-04-22 17:22 40.61610 49.25911 37884 ft 495 kts 85°
2026-04-22 17:23 40.62433 49.39817 37885 ft 498 kts 85°
2026-04-22 17:23 40.63245 49.53746 37885 ft 498 kts 84°
2026-04-22 17:24 40.63772 49.62948 37884 ft 494 kts 85°
2026-04-22 17:24 40.64304 49.72470 37885 ft 493 kts 86°
2026-04-22 17:25 40.64819 49.81781 37886 ft 495 kts 86°
2026-04-22 17:25 40.65327 49.91179 37886 ft 498 kts 85°
2026-04-22 17:26 40.65818 50.00396 37884 ft 498 kts 85°
2026-04-22 17:26 40.66318 50.09859 37884 ft 498 kts 86°
2026-04-22 17:27 40.66816 50.19388 37885 ft 498 kts 85°
2026-04-22 17:27 40.67308 50.29040 37886 ft 494 kts 85°
2026-04-22 17:28 40.67807 50.38876 37885 ft 493 kts 85°
2026-04-22 17:28 40.68233 50.48006 37884 ft 497 kts 86°
2026-04-22 17:29 40.68624 50.57609 37885 ft 498 kts 86°
2026-04-22 17:29 40.69053 50.67364 37883 ft 496 kts 86°
2026-04-22 17:30 40.69490 50.76989 37885 ft 499 kts 86°
2026-04-22 17:30 40.69924 50.86652 37884 ft 499 kts 86°
2026-04-22 17:31 40.70331 50.95818 37884 ft 494 kts 86°
2026-04-22 17:31 40.70754 51.05354 37883 ft 488 kts 87°
2026-04-22 17:32 40.71155 51.14621 37887 ft 486 kts 87°
2026-04-22 17:32 40.71558 51.24169 37886 ft 487 kts 87°
2026-04-22 17:33 40.71965 51.33898 37886 ft 491 kts 87°
2026-04-22 17:33 40.72352 51.43290 37883 ft 489 kts 86°
2026-04-22 17:34 40.73130 51.52477 37884 ft 488 kts 80°
2026-04-22 17:34 40.74499 51.61540 37884 ft 487 kts 77°
2026-04-22 17:35 40.76008 51.70855 37885 ft 487 kts 77°
2026-04-22 17:35 40.77494 51.79950 37884 ft 487 kts 77°
2026-04-22 17:36 40.79001 51.89193 37885 ft 487 kts 77°
2026-04-22 17:36 40.80431 51.97985 37886 ft 490 kts 77°
2026-04-22 17:37 40.81943 52.07296 37883 ft 491 kts 77°
2026-04-22 17:37 40.83447 52.16626 37885 ft 489 kts 77°
2026-04-22 17:38 40.84988 52.26218 37885 ft 488 kts 77°
2026-04-22 17:38 40.86540 52.35928 37885 ft 488 kts 77°
2026-04-22 17:39 40.88000 52.45122 37884 ft 488 kts 77°
2026-04-22 17:40 40.90020 52.58995 37884 ft 490 kts 84°
2026-04-22 17:40 40.90571 52.68158 37884 ft 489 kts 87°
2026-04-22 17:41 40.91015 52.77187 37884 ft 488 kts 87°
2026-04-22 17:41 40.91431 52.86222 37886 ft 489 kts 87°
2026-04-22 17:42 40.91831 52.95280 37885 ft 492 kts 87°
2026-04-22 17:42 40.92223 53.04414 37885 ft 494 kts 87°
2026-04-22 17:43 40.92629 53.14008 37883 ft 493 kts 87°
2026-04-22 17:43 40.92986 53.23881 37885 ft 493 kts 87°
2026-04-22 17:44 40.93321 53.32998 37885 ft 492 kts 87°
2026-04-22 17:44 40.93652 53.42101 37884 ft 491 kts 88°
2026-04-22 17:45 40.93988 53.51396 37885 ft 491 kts 87°
2026-04-22 17:45 40.94329 53.60754 37885 ft 492 kts 87°
2026-04-22 17:46 40.94665 53.70236 37885 ft 493 kts 88°
2026-04-22 17:46 40.94990 53.79553 37890 ft 491 kts 88°
2026-04-22 17:47 40.95308 53.88820 37933 ft 491 kts 88°
2026-04-22 17:47 40.95623 53.98229 37974 ft 491 kts 88°
2026-04-22 17:48 40.95875 54.06067 37994 ft 492 kts 88°
2026-04-22 17:48 40.96229 54.17182 37993 ft 495 kts 88°
2026-04-22 17:49 40.96528 54.27108 37992 ft 494 kts 88°
2026-04-22 17:49 40.96817 54.36897 37992 ft 494 kts 88°
2026-04-22 17:50 40.97090 54.46459 37992 ft 494 kts 88°
2026-04-22 17:50 40.97349 54.55879 37992 ft 492 kts 88°
2026-04-22 17:51 40.97595 54.64943 37992 ft 493 kts 88°
2026-04-22 17:51 40.97836 54.73980 37993 ft 494 kts 88°
2026-04-22 17:52 40.98075 54.83065 37992 ft 494 kts 88°
2026-04-22 17:52 40.98286 54.92350 37990 ft 495 kts 90°
2026-04-22 17:53 40.98412 55.02105 37991 ft 495 kts 89°
2026-04-22 17:53 40.98571 55.11793 37994 ft 496 kts 89°
2026-04-22 17:54 40.98745 55.21298 37991 ft 498 kts 88°
2026-04-22 17:54 40.98924 55.30737 37991 ft 497 kts 88°
2026-04-22 17:55 40.99095 55.39855 37992 ft 496 kts 88°
2026-04-22 17:55 40.99265 55.49034 37993 ft 496 kts 88°
2026-04-22 17:56 40.99430 55.58372 37992 ft 497 kts 88°
2026-04-22 17:56 40.99587 55.67558 37992 ft 497 kts 89°
2026-04-22 17:57 40.99753 55.77078 37992 ft 497 kts 89°
2026-04-22 17:57 40.99882 55.86701 37993 ft 498 kts 89°
2026-04-22 17:58 41.00006 55.96076 37993 ft 498 kts 89°
2026-04-22 17:58 41.00147 56.05943 37985 ft 498 kts 89°
2026-04-22 17:59 41.00285 56.15702 37979 ft 496 kts 89°
2026-04-22 17:59 41.00423 56.25610 37966 ft 497 kts 89°
2026-04-22 18:00 41.00531 56.33685 37953 ft 498 kts 89°
2026-04-22 18:00 41.00679 56.45029 37938 ft 499 kts 88°
2026-04-22 18:01 41.01304 56.54696 37938 ft 498 kts 81°
2026-04-22 18:01 41.02391 56.64491 37938 ft 497 kts 80°
2026-04-22 18:02 41.03531 56.74235 37939 ft 496 kts 80°
2026-04-22 18:02 41.04641 56.83649 37940 ft 499 kts 80°
2026-04-22 18:03 41.05750 56.93061 37940 ft 501 kts 80°
2026-04-22 18:03 41.06831 57.02287 37938 ft 498 kts 80°
2026-04-22 18:04 41.07922 57.11612 37939 ft 497 kts 81°
2026-04-22 18:04 41.09016 57.21045 37938 ft 497 kts 81°
2026-04-22 18:05 41.10081 57.30303 37939 ft 497 kts 81°
2026-04-22 18:05 41.11219 57.40281 37939 ft 497 kts 81°
2026-04-22 18:06 41.12301 57.49805 37940 ft 497 kts 81°
2026-04-22 18:06 41.13358 57.59162 37940 ft 498 kts 81°
2026-04-22 18:07 41.14408 57.68547 37938 ft 498 kts 81°
2026-04-22 18:07 41.15423 57.77648 37939 ft 499 kts 81°
2026-04-22 18:08 41.16425 57.86711 37938 ft 497 kts 81°
2026-04-22 18:08 41.17417 57.95796 37939 ft 498 kts 81°
2026-04-22 18:09 41.18409 58.04919 37939 ft 498 kts 81°
2026-04-22 18:09 41.19353 58.13949 37938 ft 496 kts 82°
2026-04-22 18:10 41.20252 58.23167 37939 ft 496 kts 82°
2026-04-22 18:10 41.21190 58.32494 37939 ft 496 kts 82°
2026-04-22 18:11 41.22155 58.41900 38001 ft 499 kts 82°
2026-04-22 18:11 41.23093 58.51009 37999 ft 499 kts 81°
2026-04-22 18:12 41.24032 58.60148 37999 ft 499 kts 81°
2026-04-22 18:12 41.24811 58.67739 38000 ft 498 kts 82°
2026-04-22 18:13 41.25899 58.78384 38000 ft 498 kts 82°
2026-04-22 18:13 41.26823 58.87487 38000 ft 497 kts 82°
2026-04-22 18:14 41.27774 58.96920 38000 ft 498 kts 81°
2026-04-22 18:14 41.28756 59.06786 38000 ft 501 kts 81°
2026-04-22 18:15 41.29740 59.16704 37998 ft 499 kts 81°
2026-04-22 18:15 41.30717 59.26748 37999 ft 496 kts 81°
2026-04-22 18:16 41.31637 59.36274 38002 ft 497 kts 81°
2026-04-22 18:16 41.32569 59.45991 38000 ft 501 kts 81°
2026-04-22 18:17 41.33472 59.55465 37998 ft 498 kts 81°
2026-04-22 18:17 41.33953 59.64742 38003 ft 496 kts 90°
2026-04-22 18:18 41.33755 59.74566 37998 ft 497 kts 92°
2026-04-22 18:18 41.33444 59.83844 37999 ft 499 kts 92°
2026-04-22 18:19 41.33071 59.93132 38000 ft 499 kts 93°
2026-04-22 18:19 41.32659 60.02361 37997 ft 497 kts 93°
2026-04-22 18:20 41.32176 60.12456 38000 ft 498 kts 94°
2026-04-22 18:20 41.31680 60.22841 37998 ft 500 kts 93°
2026-04-22 18:21 41.31203 60.32597 38000 ft 500 kts 93°
2026-04-22 18:21 41.30986 60.42810 38000 ft 498 kts 86°
2026-04-22 18:22 41.31337 60.52214 38000 ft 498 kts 85°
2026-04-22 18:22 41.31770 60.61753 38001 ft 500 kts 85°
2026-04-22 18:23 41.32251 60.71333 37997 ft 499 kts 85°
2026-04-22 18:23 41.32767 60.81274 37999 ft 499 kts 85°
2026-04-22 18:24 41.33488 60.95511 38000 ft 500 kts 85°
2026-04-22 18:25 41.34203 61.09842 37999 ft 493 kts 84°
2026-04-22 18:25 41.34661 61.19147 38000 ft 488 kts 85°
2026-04-22 18:26 41.35330 61.33005 38000 ft 489 kts 85°
2026-04-22 18:26 41.35779 61.42544 38000 ft 492 kts 84°
2026-04-22 18:27 41.36159 61.51707 37999 ft 490 kts 85°
2026-04-22 18:27 41.36549 61.61118 37999 ft 487 kts 85°
2026-04-22 18:28 41.36936 61.70139 38002 ft 489 kts 86°
2026-04-22 18:28 41.37370 61.79921 38000 ft 492 kts 85°
2026-04-22 18:29 41.37794 61.89643 37999 ft 491 kts 85°
2026-04-22 18:29 41.38177 61.98833 38001 ft 489 kts 85°
2026-04-22 18:30 41.38758 62.12655 37998 ft 490 kts 85°
2026-04-22 18:31 41.39121 62.21703 37998 ft 490 kts 85°
2026-04-22 18:31 41.39480 62.30894 37999 ft 488 kts 85°
2026-04-22 18:32 41.39849 62.40030 38001 ft 490 kts 85°
2026-04-22 18:32 41.40217 62.49291 37994 ft 491 kts 85°
2026-04-22 18:33 41.40534 62.58387 37995 ft 488 kts 85°
2026-04-22 18:33 41.40860 62.67605 37992 ft 488 kts 86°
2026-04-22 18:34 41.41213 62.76707 37992 ft 489 kts 86°
2026-04-22 18:34 41.41553 62.85921 37994 ft 491 kts 86°
2026-04-22 18:35 41.41885 62.95221 37991 ft 490 kts 86°
2026-04-22 18:35 41.42217 63.04339 37992 ft 486 kts 87°
2026-04-22 18:36 41.42541 63.13325 37993 ft 484 kts 87°
2026-04-22 18:36 41.42859 63.22335 37993 ft 483 kts 87°
2026-04-22 18:37 41.43169 63.31277 37993 ft 484 kts 87°
2026-04-22 18:37 41.43473 63.40296 37993 ft 484 kts 87°
2026-04-22 18:38 41.43768 63.49194 37993 ft 484 kts 87°
2026-04-22 18:38 41.44060 63.58228 37993 ft 483 kts 87°
2026-04-22 18:39 41.44457 63.71840 37993 ft 483 kts 89°
2026-04-22 18:39 41.44662 63.80975 37993 ft 484 kts 88°
2026-04-22 18:40 41.44883 63.89989 37993 ft 484 kts 88°
2026-04-22 18:40 41.45124 63.99516 37993 ft 484 kts 88°
2026-04-22 18:41 41.45360 64.08819 37993 ft 484 kts 88°
2026-04-22 18:41 41.45590 64.17992 37993 ft 483 kts 88°
2026-04-22 18:42 41.45819 64.27326 37993 ft 484 kts 88°
2026-04-22 18:42 41.46041 64.36661 37993 ft 484 kts 88°
2026-04-22 18:43 41.46257 64.45980 37993 ft 484 kts 88°
2026-04-22 18:43 41.46465 64.55273 37993 ft 484 kts 88°
2026-04-22 18:44 41.46661 64.64320 37993 ft 484 kts 88°
2026-04-22 18:44 41.46857 64.73568 37993 ft 484 kts 89°
2026-04-22 18:45 41.47046 64.82827 37993 ft 484 kts 89°
2026-04-22 18:45 41.47220 64.91798 37993 ft 483 kts 89°
2026-04-22 18:46 41.47385 65.00714 37992 ft 480 kts 90°
2026-04-22 18:46 41.47542 65.09574 37992 ft 478 kts 90°
2026-04-22 18:47 41.47693 65.18486 37993 ft 478 kts 90°
2026-04-22 18:47 41.47838 65.27499 37993 ft 479 kts 90°
2026-04-22 18:48 41.47975 65.36465 37982 ft 479 kts 90°
2026-04-22 18:48 41.48107 65.45521 37966 ft 479 kts 90°
2026-04-22 18:49 41.48231 65.54472 37951 ft 479 kts 90°
2026-04-22 18:49 41.48355 65.64060 37949 ft 479 kts 90°
2026-04-22 18:50 41.48469 65.73164 37948 ft 479 kts 91°
2026-04-22 18:50 41.48550 65.82519 37940 ft 478 kts 92°
2026-04-22 18:51 41.48465 65.91483 37926 ft 479 kts 92°
2026-04-22 18:51 41.48425 66.00568 37697 ft 476 kts 92°
2026-04-22 18:52 41.48416 66.04970 37432 ft 468 kts 92°
2026-04-22 18:52 41.48412 66.09335 37178 ft 463 kts 91°
2026-04-22 18:52 41.48409 66.13699 36931 ft 464 kts 91°
2026-04-22 18:52 41.48407 66.18030 36686 ft 466 kts 91°
2026-04-22 18:53 41.48406 66.22450 36433 ft 467 kts 91°
2026-04-22 18:53 41.48404 66.26862 36180 ft 467 kts 91°
2026-04-22 18:53 41.48402 66.31230 35927 ft 467 kts 91°
2026-04-22 18:53 41.48400 66.35580 35676 ft 467 kts 91°
2026-04-22 18:54 41.48397 66.39912 35426 ft 468 kts 91°
2026-04-22 18:54 41.48393 66.44188 35179 ft 468 kts 91°
2026-04-22 18:54 41.48388 66.48585 34925 ft 469 kts 91°
2026-04-22 18:54 41.48382 66.52924 34675 ft 470 kts 91°
2026-04-22 18:55 41.48238 66.57311 34420 ft 468 kts 98°
2026-04-22 18:55 41.47815 66.61657 34170 ft 468 kts 100°
2026-04-22 18:55 41.47300 66.65953 33918 ft 468 kts 102°
2026-04-22 18:55 41.46751 66.70232 33668 ft 468 kts 102°
2026-04-22 18:56 41.46181 66.74510 33417 ft 468 kts 103°
2026-04-22 18:56 41.45596 66.78780 33166 ft 469 kts 103°
2026-04-22 18:56 41.45000 66.83049 32915 ft 469 kts 103°
2026-04-22 18:56 41.44399 66.87304 32666 ft 469 kts 103°
2026-04-22 18:57 41.43794 66.91549 32416 ft 469 kts 103°
2026-04-22 18:57 41.43181 66.95813 31999 ft 462 kts 103°
2026-04-22 18:57 41.42576 66.99993 31367 ft 460 kts 103°
2026-04-22 18:57 41.41979 67.04100 30828 ft 455 kts 103°
2026-04-22 18:58 41.41375 67.08230 30261 ft 450 kts 103°
2026-04-22 18:58 41.40783 67.12251 29696 ft 447 kts 103°
2026-04-22 18:58 41.40189 67.16276 29130 ft 443 kts 103°
2026-04-22 18:58 41.39605 67.20217 28575 ft 440 kts 103°
2026-04-22 18:59 41.39007 67.24239 28004 ft 436 kts 103°
2026-04-22 18:59 41.38421 67.28164 27451 ft 433 kts 103°
2026-04-22 18:59 41.37830 67.32119 26886 ft 429 kts 103°
2026-04-22 18:59 41.37261 67.35907 26347 ft 426 kts 103°
2026-04-22 19:00 41.36682 67.39749 25792 ft 422 kts 103°
2026-04-22 19:00 41.36103 67.43584 25245 ft 419 kts 103°
2026-04-22 19:00 41.35533 67.47355 24701 ft 415 kts 103°
2026-04-22 19:00 41.34962 67.51114 24158 ft 412 kts 103°
2026-04-22 19:01 41.34401 67.54803 23626 ft 408 kts 103°
2026-04-22 19:01 41.33838 67.58490 23091 ft 405 kts 103°
2026-04-22 19:01 41.33281 67.62134 22564 ft 402 kts 103°
2026-04-22 19:01 41.32729 67.65735 22039 ft 398 kts 104°
2026-04-22 19:02 41.32188 67.69259 21526 ft 395 kts 104°
2026-04-22 19:02 41.31648 67.72776 21015 ft 391 kts 104°
2026-04-22 19:02 41.31112 67.76251 20434 ft 385 kts 104°
2026-04-22 19:02 41.30570 67.79761 19722 ft 377 kts 104°
2026-04-22 19:03 41.30051 67.83106 19223 ft 364 kts 104°
2026-04-22 19:03 41.29556 67.86277 18796 ft 355 kts 104°
2026-04-22 19:03 41.29062 67.89354 18373 ft 352 kts 104°
2026-04-22 19:03 41.28570 67.92548 17890 ft 353 kts 101°
2026-04-22 19:04 41.28334 67.95838 17180 ft 361 kts 94°
2026-04-22 19:04 41.28251 67.99284 16464 ft 365 kts 93°
2026-04-22 19:04 41.28187 68.02683 15758 ft 368 kts 93°
2026-04-22 19:04 41.28127 68.06099 15054 ft 370 kts 92°
2026-04-22 19:05 41.28068 68.09501 14354 ft 370 kts 92°
2026-04-22 19:05 41.28011 68.12884 13624 ft 360 kts 92°
2026-04-22 19:05 41.27954 68.16137 12929 ft 351 kts 92°
2026-04-22 19:05 41.27897 68.19364 12223 ft 343 kts 92°
2026-04-22 19:06 41.27841 68.22476 11526 ft 336 kts 92°
2026-04-22 19:06 41.27784 68.25545 10825 ft 330 kts 92°
2026-04-22 19:06 41.27727 68.28561 10126 ft 325 kts 91°
2026-04-22 19:07 41.27613 68.34502 8717 ft 316 kts 91°
2026-04-22 19:07 41.27557 68.37367 8042 ft 311 kts 91°
2026-04-22 19:07 41.27500 68.40204 7483 ft 301 kts 91°
2026-04-22 19:07 41.27445 68.42934 6872 ft 292 kts 90°
2026-04-22 19:08 41.27390 68.45631 6252 ft 284 kts 90°
2026-04-22 19:08 41.27336 68.48212 5642 ft 278 kts 90°
2026-04-22 19:08 41.27282 68.50809 5189 ft 266 kts 90°
2026-04-22 19:08 41.27228 68.53308 4979 ft 255 kts 90°
2026-04-22 19:09 41.27176 68.55730 5026 ft 249 kts 90°
2026-04-22 19:09 41.27127 68.57981 4973 ft 233 kts 90°
2026-04-22 19:09 41.27079 68.60111 4989 ft 226 kts 90°
2026-04-22 19:09 41.27033 68.62218 4993 ft 226 kts 90°
2026-04-22 19:10 41.26986 68.64326 4992 ft 225 kts 90°
2026-04-22 19:10 41.26939 68.66434 4993 ft 225 kts 91°
2026-04-22 19:10 41.26893 68.68501 5009 ft 225 kts 91°
2026-04-22 19:10 41.26845 68.70663 4986 ft 225 kts 91°
2026-04-22 19:11 41.26798 68.72727 4990 ft 225 kts 91°
2026-04-22 19:11 41.26746 68.74972 4985 ft 213 kts 91°
2026-04-22 19:11 41.26699 68.76939 4985 ft 206 kts 91°
2026-04-22 19:11 41.26654 68.78838 4991 ft 204 kts 91°
2026-04-22 19:12 41.26614 68.80534 4993 ft 204 kts 91°
2026-04-22 19:12 41.26569 68.82448 4993 ft 204 kts 91°
2026-04-22 19:12 41.26523 68.84365 4980 ft 204 kts 91°
2026-04-22 19:12 41.26468 68.86264 4847 ft 204 kts 94°
2026-04-22 19:13 41.26217 68.88125 4701 ft 203 kts 106°
2026-04-22 19:13 41.25708 68.89861 4534 ft 201 kts 114°
2026-04-22 19:13 41.25113 68.91559 4324 ft 192 kts 115°
2026-04-22 19:13 41.24546 68.93143 4172 ft 190 kts 115°
2026-04-22 19:14 41.23974 68.94752 4001 ft 189 kts 115°
2026-04-22 19:14 41.23414 68.96338 3996 ft 188 kts 115°
2026-04-22 19:14 41.22911 68.97958 3992 ft 190 kts 106°
2026-04-22 19:14 41.22694 68.99667 3979 ft 189 kts 91°
2026-04-22 19:15 41.22712 69.00840 3933 ft 189 kts 85°
2026-04-22 19:15 41.22891 69.03101 3773 ft 175 kts 82°
2026-04-22 19:15 41.23051 69.04652 3681 ft 169 kts 81°
2026-04-22 19:15 41.23232 69.06308 3543 ft 171 kts 81°
2026-04-22 19:16 41.23410 69.07912 3340 ft 159 kts 81°
2026-04-22 19:16 41.23582 69.09453 3171 ft 154 kts 81°
2026-04-22 19:16 41.23750 69.10961 3033 ft 153 kts 81°
2026-04-22 19:16 41.23916 69.12447 3004 ft 152 kts 81°
2026-04-22 19:17 41.24086 69.13963 3003 ft 154 kts 81°
2026-04-22 19:17 41.24253 69.15459 2984 ft 153 kts 81°
2026-04-22 19:17 41.24412 69.16879 2793 ft 154 kts 81°
2026-04-22 19:17 41.24567 69.18275 2602 ft 152 kts 81°
2026-04-22 19:18 41.24720 69.19650 2403 ft 152 kts 81°
2026-04-22 19:18 41.24874 69.21047 2197 ft 152 kts 81°
2026-04-22 19:18 41.25031 69.22440 1922 ft 151 kts 81°
2026-04-22 19:18 41.25176 69.23812 1734 ft 149 kts 81°
2026-04-22 19:19 41.25333 69.25189 1559 ft 151 kts 81°
2026-04-22 19:19 41.25480 69.26538 1427 ft 143 kts 81°
2026-04-22 19:19 41.25578 69.27403 1425 ft 47 kts 81°
2026-04-22 19:19 41.25600 69.27599 1425 ft 0 kts 82°
2026-04-22 19:20 41.25600 69.27600 1425 ft 0 kts 82°
2026-04-22 19:21 41.25600 69.27601 1425 ft 0 kts 80°
2026-04-22 19:21 41.25600 69.27600 1425 ft 0 kts 83°
2026-04-22 19:23 41.25600 69.27602 1425 ft 0 kts 83°
2026-04-22 19:23 41.25600 69.27605 1425 ft 1 kts 83°
2026-04-22 19:24 41.25607 69.27658 1425 ft 8 kts 70°
2026-04-22 19:24 41.25663 69.27702 1425 ft 11 kts 344°
2026-04-22 19:24 41.25741 69.27626 1425 ft 15 kts 321°
2026-04-22 19:24 41.25822 69.27520 1425 ft 14 kts 316°
2026-04-22 19:25 41.25892 69.27439 1425 ft 11 kts 320°
2026-04-22 19:25 41.25909 69.27420 1425 ft 0 kts 319°
2026-04-22 19:25 41.25910 69.27419 1425 ft 0 kts 319°
2026-04-22 19:25 41.25918 69.27409 1425 ft 2 kts 318°
2026-04-22 19:26 41.25935 69.27389 1425 ft 4 kts 318°
2026-04-22 19:26 41.25961 69.27359 1425 ft 5 kts 320°
2026-04-22 19:26 41.25996 69.27319 1425 ft 7 kts 319°
2026-04-22 19:26 41.26038 69.27269 1425 ft 8 kts 307°
2026-04-22 19:27 41.26038 69.27195 1425 ft 9 kts 241°
2026-04-22 19:27 41.26006 69.27113 1425 ft 10 kts 245°
2026-04-22 19:27 41.25995 69.27040 1425 ft 7 kts 291°
2026-04-22 19:27 41.26030 69.27009 1425 ft 3 kts 338°
2026-04-22 19:28 41.26035 69.27007 1425 ft 0 kts 337°